Wetbulb
54.28 54.24 54.06 54.26 54.15 54.09 53.89 53.69 53.34 53.31 52.82 52.63 52.78 53.40 53.79 54.12 54.36 52.04 47.60 49.23 46.58 46.80 46.68 48.67 48.96 45.46 45.81 45.60 42.36 44.84 45.97 46.60 48.53 43.45 42.46 42.41 42.39 44.57 42.81 43.92 42.28 41.26 40.23 39.64 40.05 39.98 42.27 55.75 55.37 51.06 52.49 57.75 60.19 59.45
54.35 54.02 53.92 54.20 54.20 54.08 53.73 53.65 53.51 53.22 52.40 52.90 52.74 52.96 53.34 53.52 53.66 53.49 47.86 49.60 50.47 45.95 45.48 50.79 51.13 51.81 51.24 51.33 45.10 45.07 43.49 43.94 48.18 45.19 45.97 46.26 46.35 47.17 44.63 43.80 47.55 42.63 45.88 42.88 43.49 43.84 51.65 53.07 55.92 57.05 60.73 60.72 59.77 60.01
54.31 54.10 53.98 54.02 54.04 53.74 53.73 53.55 53.46 52.92 52.53 52.59 52.60 52.83 52.78 53.02 53.01 52.47 49.83 49.91 47.34 46.87 45.90 46.30 46.60 51.51 52.98 52.38 52.78 44.61 45.70 47.63 45.49 48.56 46.40 47.53 46.69 47.55 43.39 45.41 46.00 48.59 50.01 48.31 48.38 51.70 52.92 54.97 54.90 56.28 59.98 60.75 61.73 61.70
54.21 54.11 54.01 53.87 53.80 53.64 53.47 53.59 53.34 52.59 52.67 53.17 53.00 53.17 53.64 53.48 52.94 52.32 49.11 50.16 49.01 46.87 43.12 44.20 53.08 50.50 54.39 53.23 53.06 52.90 49.68 48.52 46.27 47.35 45.45 45.45 45.45 48.88 45.51 47.08 45.52 48.66 48.42 47.48 47.00 49.58 52.22 54.76 56.82 58.85 59.67 62.63 62.63 62.71
53.81 53.87 53.67 53.81 53.66 53.44 53.50 53.45 53.10 52.49 52.96 53.21 53.30 53.13 53.13 53.37 52.64 51.52 50.05 50.11 50.41 46.42 43.83 43.77 49.14 51.87 52.84 53.09 53.17 53.34 51.24 47.50 44.20 43.33 44.17 43.97 47.32 47.01 48.21 48.83 45.74 48.09 45.98 44.23 43.83 48.84 49.82 51.75 56.23 60.33 60.31 59.96 61.90 61.91
53.16 53.32 53.39 53.55 53.20 53.23 53.31 53.21 52.76 52.65 53.08 53.02 52.79 52.66 52.78 52.20 52.12 48.54 44.74 50.07 50.98 50.31 45.95 42.25 49.00 49.97 53.57 54.94 53.32 51.92 50.80 46.31 46.11 44.51 44.12 46.25 49.45 47.36 44.03 45.01 49.18 48.37 50.28 51.19 50.86 52.55 55.28 57.23 59.30 60.59 59.31 59.70 61.74 61.88
53.01 53.09 53.18 53.20 53.09 52.97 52.25 52.82 52.59 52.06 52.47 52.41 52.23 52.19 51.91 51.50 50.08 45.33 45.29 50.58 51.93 52.17 47.46 44.76 44.28 52.47 55.74 53.76 52.19 50.86 50.31 47.47 46.19 42.94 43.29 44.06 46.59 47.51 44.39 43.11 50.04 51.38 51.94 52.40 52.10 52.44 52.08 54.52 55.53 59.65 60.87 60.43 59.28 61.40
52.67 52.83 52.89 52.91 52.91 52.92 52.66 52.64 51.69 52.21 52.24 52.09 52.11 51.49 51.46 51.46 50.59 47.48 48.77 51.11 51.45 50.46 49.62 43.52 45.15 49.81 53.79 50.05 49.07 51.38 48.01 46.69 45.20 44.89 45.21 43.95 44.48 45.44 43.16 47.80 51.39 52.61 52.19 53.09 53.39 52.99 51.71 52.49 53.17 54.61 58.66 59.04 58.69 58.54
52.53 52.69 52.69 52.75 52.68 52.68 52.77 52.64 52.38 52.10 51.55 51.76 51.53 51.88 48.85 46.45 47.91 50.71 55.44 54.59 52.20 48.99 46.51 47.80 45.24 45.51 55.39 52.14 52.34 51.35 48.03 42.69 46.79 43.61 43.99 45.13 41.42 40.33 46.73 49.29 50.61 52.26 51.17 52.71 53.72 53.74 54.43 55.49 55.56 57.12 57.51 57.71 57.08 56.67
52.68 52.57 52.61 52.81 52.66 52.56 52.45 52.40 52.26 51.53 50.97 51.20 49.49 49.58 49.24 50.10 53.15 53.54 50.12 48.85 48.00 48.62 46.80 45.58 48.25 46.59 51.05 52.08 50.09 49.67 49.83 46.70 44.16 46.30 47.94 45.13 44.05 47.03 49.68 49.55 50.25 54.28 54.47 54.48 51.97 50.76 54.17 55.17 56.34 56.65 56.28 57.92 57.72 57.56
52.75 52.61 52.82 52.62 52.75 52.82 52.20 51.97 51.93 50.87 50.25 45.08 41.80 44.09 47.33 51.27 51.05 49.39 46.53 46.65 46.06 45.76 47.43 47.79 47.41 46.20 50.80 47.65 49.26 52.82 49.49 48.43 42.69 46.58 45.97 43.39 42.43 50.20 52.69 52.45 52.96 55.48 56.63 55.94 57.10 57.30 56.46 56.72 57.01 57.10 56.64 56.76 56.58 56.45
52.71 52.46 52.66 52.44 52.44 52.63 52.21 51.91 51.54 47.43 44.55 44.32 45.27 47.89 47.50 47.25 48.03 45.56 44.64 46.53 45.76 44.62 47.98 47.42 47.94 48.43 50.21 54.30 50.05 50.16 49.18 48.35 43.90 50.03 48.00 46.51 50.60 52.33 52.55 55.27 56.06 58.13 58.53 58.02 58.71 58.27 57.66 57.41 56.83 56.71 56.84 57.03 57.46 58.17
52.41 52.20 52.20 52.34 52.46 52.33 52.17 51.72 51.66 51.31 49.87 49.15 46.43 43.99 44.39 45.89 38.71 41.89 39.74 42.24 43.57 48.63 50.69 51.07 49.15 50.85 50.40 53.71 49.43 48.90 46.87 44.08 49.46 45.26 44.74 48.91 52.78 53.97 53.20 55.90 56.51 58.12 58.03 57.61 57.50 57.98 57.93 57.73 58.36 57.20 55.95 55.69 55.03 57.50
52.05 51.70 51.81 51.81 51.80 51.79 51.77 51.89 51.26 49.50 45.64 44.49 43.48 36.14 41.68 41.37 42.83 45.24 45.36 46.16 50.23 49.90 49.65 50.18 49.70 49.13 51.19 48.95 49.43 46.32 48.24 49.21 44.12 42.44 43.89 49.80 52.20 53.39 54.77 55.89 55.96 55.14 56.14 56.26 55.90 56.08 55.89 55.72 55.70 56.09 55.76 55.73 55.56 54.52
51.75 51.85 51.47 51.27 52.12 52.41 52.06 51.08 51.14 48.61 44.99 42.87 43.43 37.73 41.83 45.85 48.75 49.28 50.23 50.23 51.42 51.01 49.74 48.65 49.30 48.79 47.36 47.51 47.61 46.84 45.61 43.78 44.45 44.10 48.08 51.94 53.80 54.37 54.22 54.40 53.58 53.41 53.37 53.12 53.61 53.96 54.59 54.81 54.31 54.10 54.53 55.29 55.53 55.66
51.84 51.35 50.35 52.49 51.52 51.30 50.66 49.74 48.63 47.98 46.80 43.73 43.10 40.82 44.70 46.20 46.35 47.94 48.90 48.67 51.71 50.37 50.40 50.68 46.98 45.75 44.06 45.01 44.72 44.19 43.91 42.88 45.42 48.98 51.90 53.34 54.35 55.08 54.71 54.97 53.63 53.04 52.96 52.97 53.77 54.27 54.07 53.36 53.06 53.46 53.58 53.79 53.48 54.24
50.67 47.86 51.41 50.70 50.50 50.08 50.15 46.28 48.14 45.60 43.82 42.94 41.81 43.65 43.89 44.18 45.22 47.43 49.00 49.73 51.91 48.67 44.96 46.50 43.52 44.98 48.90 45.80 45.12 47.21 45.02 47.19 50.30 51.45 54.22 55.60 55.35 54.47 55.11 54.48 54.06 53.85 53.63 53.38 53.33 53.29 53.13 53.97 53.85 51.93 51.02 51.64 52.35 53.03
48.53 50.28 50.78 50.39 49.89 48.82 48.61 48.11 46.02 45.33 42.31 42.52 38.83 42.18 44.31 46.15 44.57 45.03 48.43 48.79 47.13 47.74 47.79 46.67 49.30 45.63 44.33 44.20 45.36 49.38 49.62 52.45 53.13 52.24 52.87 56.22 56.60 56.00 54.72 53.57 53.80 53.73 52.98 52.85 53.33 53.84 53.83 53.11 51.56 51.54 51.14 51.93 52.79 53.26
49.93 50.14 50.79 50.46 49.02 45.90 44.25 45.83 46.69 40.81 41.82 40.78 42.53 44.01 44.33 44.28 46.70 47.58 46.80 47.22 47.49 49.25 46.59 45.51 43.66 43.60 45.93 48.53 49.11 50.23 52.33 52.47 52.23 53.75 54.43 55.36 56.27 56.64 56.15 55.15 55.05 53.54 52.43 52.39 52.61 53.06 53.92 53.89 53.23 52.78 52.60 52.50 52.00 52.84
50.37 50.36 50.26 50.28 48.99 45.22 43.20 42.60 45.69 40.95 38.29 40.26 43.70 42.45 42.54 42.99 45.08 46.13 45.60 45.51 44.81 44.36 43.57 43.13 42.85 47.19 48.19 50.34 51.05 50.26 51.57 52.76 53.42 52.03 52.51 54.41 55.62 56.29 55.84 55.25 54.36 52.78 53.26 52.61 52.84 51.46 53.98 53.74 53.40 54.63 54.38 53.49 52.24 51.06
49.19 49.35 51.25 49.43 46.74 45.46 42.85 41.52 41.20 41.27 41.18 39.97 41.67 41.37 41.07 42.95 42.31 42.83 43.36 45.97 43.79 42.37 42.25 45.70 45.35 47.88 51.75 52.06 52.43 52.72 52.48 50.92 51.52 52.24 52.20 51.77 54.27 55.29 55.25 55.47 54.99 54.34 52.69 51.59 54.14 52.59 51.47 52.98 52.86 52.76 54.30 53.08 54.13 53.09
47.02 50.50 47.60 48.36 45.30 45.31 41.50 41.53 39.53 41.05 39.47 39.85 40.46 41.38 39.64 39.56 40.28 42.02 44.78 42.56 42.34 43.73 45.08 45.67 46.33 45.95 47.48 50.70 52.28 53.43 54.00 53.71 51.78 51.27 50.43 51.38 52.53 53.42 53.17 54.11 54.65 53.97 53.27 53.02 53.72 52.29 52.17 53.76 53.91 54.64 53.69 53.90 51.46 52.24
48.58 47.78 45.86 46.18 42.97 38.08 35.93 42.48 38.58 40.64 37.98 38.85 41.59 42.24 42.99 43.66 46.19 46.76 44.34 45.21 45.75 46.61 47.15 47.52 48.19 50.52 51.57 52.84 53.33 52.89 53.04 53.05 51.38 50.30 50.70 51.85 52.58 53.46 53.73 54.62 55.09 53.81 52.26 53.59 52.55 52.83 53.55 52.20 52.86 54.07 53.10 52.66 52.47 52.10
48.37 43.83 42.16 41.05 39.73 34.49 40.39 40.95 42.60 41.18 40.43 40.05 40.18 39.25 41.68 44.67 45.83 44.40 42.65 46.15 48.23 50.39 50.14 50.54 51.92 49.83 48.90 49.81 50.38 50.56 52.23 53.15 52.14 51.79 52.34 51.54 51.96 53.02 53.46 54.02 56.10 55.91 55.28 54.48 53.31 54.60 54.70 54.21 51.49 52.78 52.81 52.54 52.49 51.92
38.99 36.50 36.50 33.64 39.17 39.08 39.02 39.58 40.26 40.03 39.07 42.07 41.52 41.03 43.14 43.58 39.87 42.26 44.24 47.48 49.74 48.37 48.65 47.05 46.77 46.72 45.86 46.24 46.79 49.05 53.68 52.88 51.52 51.40 53.01 52.22 50.26 50.47 51.06 52.73 54.81 56.05 57.41 56.19 54.00 52.84 53.90 52.39 52.41 55.31 54.71 53.16 51.87 51.98
31.89 36.27 32.99 38.65 39.77 38.58 39.76 38.44 40.05 39.36 40.94 39.63 40.14 42.89 44.22 42.57 41.56 42.60 44.90 45.86 46.57 47.08 47.25 48.83 48.14 45.32 45.17 46.19 45.41 45.97 48.11 52.83 52.58 51.74 52.71 53.07 51.88 50.70 51.20 52.18 52.86 53.15 56.80 57.32 56.28 54.74 54.34 53.35 52.51 53.91 53.48 53.49 48.49 54.26
33.55 35.56 39.26 43.25 41.86 41.36 38.94 39.94 39.63 37.81 36.97 38.82 40.14 40.85 42.35 40.31 39.60 44.75 49.04 49.67 49.90 51.53 51.99 51.11 50.17 48.98 48.74 49.46 47.94 48.28 48.94 50.47 52.59 52.60 54.69 54.15 54.24 52.63 53.70 53.66 54.31 54.72 57.68 58.06 57.15 56.10 55.72 54.57 53.29 55.37 54.34 53.20 53.82 54.36
38.25 39.45 37.57 40.99 41.02 41.59 38.93 38.53 37.71 38.86 40.49 42.58 42.22 41.03 41.68 42.52 42.93 46.80 48.66 52.01 54.06 53.09 52.09 51.55 51.97 51.98 49.52 51.18 51.42 50.85 51.60 52.62 53.81 53.40 53.29 53.50 54.51 55.71 56.57 56.41 57.13 51.11 55.61 56.95 57.01 56.65 56.19 54.68 55.97 55.22 54.19 53.43 54.46 56.79
38.87 41.21 41.14 38.47 39.41 39.84 39.89 38.78 39.32 40.60 42.52 41.53 39.34 39.53 40.89 44.94 47.53 48.32 51.15 53.30 54.24 53.60 52.28 51.82 51.42 51.47 52.51 52.76 51.17 51.13 49.83 51.61 49.28 49.36 49.73 49.68 50.09 51.23 55.51 54.54 54.46 54.67 55.63 55.50 49.46 51.91 53.83 54.32 55.18 55.30 54.50 55.37 55.56 56.74
39.76 42.45 39.70 39.82 38.66 38.08 39.72 41.27 40.22 43.18 43.52 43.47 43.80 43.33 45.11 47.31 50.13 54.93 53.99 53.80 53.60 53.82 54.22 53.14 53.44 52.72 51.06 51.54 51.86 51.51 51.92 53.28 53.53 51.90 50.30 51.06 51.82 54.48 55.21 56.21 56.22 54.58 55.02 55.15 55.06 55.72 47.01 52.49 50.97 52.78 54.49 54.94 53.90 53.54
43.08 42.07 40.66 40.46 39.85 42.27 44.04 45.50 46.26 44.61 44.19 44.12 46.62 44.96 44.48 47.79 53.89 55.74 55.20 54.52 55.84 55.42 54.35 53.06 53.29 53.58 51.74 53.07 53.46 52.18 52.63 56.24 56.86 56.95 56.52 55.33 54.69 55.94 56.35 57.55 58.43 56.01 54.53 54.61 54.30 55.16 55.28 54.23 54.67 53.57 52.70 53.70 53.07 52.51
42.14 40.37 39.52 38.72 40.67 44.48 44.73 43.45 44.23 43.30 46.43 46.85 46.42 47.44 49.32 50.43 49.32 51.29 54.24 55.20 54.76 52.94 51.70 52.84 52.42 52.91 54.08 55.84 56.58 55.44 47.70 55.66 56.74 56.88 57.97 57.14 56.32 57.25 57.32 57.50 57.58 57.28 56.58 56.73 56.11 55.74 55.84 55.81 54.68 55.35 55.72 56.16 55.15 53.91
42.86 42.69 41.96 40.87 40.86 42.83 45.33 44.57 45.37 45.62 48.45 48.78 48.93 51.03 50.51 49.74 47.56 53.19 56.92 56.52 55.84 55.74 55.51 56.12 57.46 57.34 56.78 56.54 56.42 56.38 51.90 58.05 55.39 46.81 46.23 47.28 47.25 49.40 50.34 52.30 53.59 54.25 55.06 55.05 55.62 55.59 55.18 56.23 55.52 56.53 56.57 56.92 56.67 55.32
MSLP
1022.56 1022.12 1021.73 1021.34 1020.95 1020.55 1019.96 1019.55 1019.32 1019.02 1018.40 1017.99 1017.54 1017.04 1016.43 1015.95 1015.51 1015.42 1014.94 1014.38 1014.31 1013.24 1010.67 1008.89 1008.53 1008.03 1007.50 1007.01 1006.24 1004.41 1003.20 1002.03 1001.61 1001.62 1001.79 1001.50 1001.11 1000.13 999.80 999.22 998.91 999.41 999.96 1000.26 999.95 999.48 998.48 996.81 996.56 997.32 998.89 999.88 1000.26 1000.82
1022.27 1021.75 1021.24 1020.91 1020.59 1020.23 1019.73 1019.27 1018.80 1018.37 1018.00 1017.64 1017.09 1016.58 1016.21 1015.81 1015.43 1015.17 1014.93 1013.95 1014.07 1013.81 1010.19 1007.91 1007.10 1006.63 1006.61 1006.04 1006.38 1005.50 1004.78 1004.10 1003.09 1002.77 1002.53 1001.86 1001.58 1000.88 1000.46 1000.07 998.70 998.82 998.47 999.00 999.04 998.41 997.51 996.81 996.92 997.83 998.59 999.49 1000.53 1000.79
1021.74 1021.32 1021.13 1020.87 1020.41 1019.89 1019.56 1018.87 1018.59 1018.07 1017.58 1017.13 1016.63 1016.08 1015.65 1015.43 1015.19 1015.07 1014.48 1014.04 1013.89 1012.71 1009.43 1007.42 1005.07 1003.86 1003.88 1004.16 1004.37 1005.66 1004.22 1003.44 1003.27 1003.13 1003.20 1002.55 1002.00 1001.54 1001.20 1000.26 999.31 998.46 997.78 998.52 998.52 998.63 997.80 997.59 997.63 997.88 998.42 998.97 999.80 1000.29
1021.33 1021.08 1020.49 1020.14 1019.93 1019.41 1018.98 1018.48 1018.03 1017.65 1017.13 1016.63 1016.20 1015.67 1015.06 1014.70 1014.56 1014.48 1014.15 1013.62 1013.64 1012.91 1011.03 1006.28 1003.79 1002.86 1001.88 1002.44 1003.13 1003.03 1003.34 1003.01 1003.38 1003.34 1003.33 1002.84 1002.32 1001.25 1001.24 1000.65 999.99 999.12 998.08 998.86 998.99 998.71 998.37 998.27 997.93 998.12 998.53 999.17 1000.01 1000.84
1020.56 1020.28 1019.96 1019.60 1018.97 1018.64 1018.10 1017.70 1017.24 1016.99 1016.58 1015.97 1015.53 1015.09 1014.56 1014.09 1013.77 1013.51 1012.95 1012.34 1012.48 1012.59 1010.77 1007.45 1004.42 1001.46 1000.55 1000.86 1001.54 1002.50 1003.08 1003.32 1003.88 1004.03 1003.76 1003.29 1002.17 1001.62 1001.30 1000.96 1000.33 999.53 999.12 999.50 999.79 998.76 998.35 998.39 998.39 998.28 998.88 999.54 999.99 1000.52
1020.06 1019.68 1019.38 1018.97 1018.72 1018.30 1017.81 1017.21 1016.59 1016.04 1015.72 1015.32 1014.69 1014.30 1013.84 1013.45 1013.28 1013.13 1012.13 1011.43 1011.64 1012.05 1011.26 1008.49 1004.57 1001.67 1000.42 1000.18 1000.83 1001.86 1002.28 1002.81 1003.27 1003.54 1003.66 1002.72 1001.54 1001.58 1002.03 1001.49 1000.42 999.57 998.94 998.88 999.06 998.67 998.16 998.09 998.38 998.53 999.12 999.69 1000.22 1000.84
1019.20 1019.02 1018.85 1018.51 1018.16 1017.95 1017.41 1016.77 1016.14 1015.54 1014.80 1014.29 1013.73 1013.25 1012.97 1012.76 1012.91 1012.67 1011.73 1011.38 1011.34 1011.60 1010.86 1008.49 1005.48 1001.80 999.98 999.72 1000.41 1001.22 1001.45 1001.96 1002.54 1003.46 1003.34 1002.74 1001.99 1001.70 1001.84 1001.43 1000.03 999.37 999.05 998.81 998.64 998.56 998.85 998.83 999.14 999.33 999.50 1000.07 1000.60 1001.18
1018.52 1018.27 1018.16 1017.82 1017.38 1017.32 1016.78 1016.11 1015.60 1014.96 1014.08 1013.23 1012.54 1012.09 1011.71 1011.83 1012.11 1011.81 1010.38 1010.01 1011.01 1010.93 1010.19 1008.72 1005.62 1002.77 1000.00 1000.34 1000.74 1000.66 1001.49 1001.99 1002.43 1002.70 1002.65 1002.53 1002.17 1001.88 1001.69 1000.39 999.68 999.08 999.03 998.98 999.02 998.99 999.35 999.40 999.65 1000.06 1000.32 1000.84 1001.66 1002.65
1018.19 1017.88 1017.72 1017.26 1016.75 1016.65 1016.54 1015.61 1015.16 1014.42 1013.41 1012.40 1011.44 1011.24 1011.39 1011.55 1011.38 1010.75 1010.19 1009.69 1010.15 1010.80 1009.79 1008.16 1006.17 1003.94 1001.67 1000.76 1000.58 1000.93 1001.09 1002.31 1001.87 1002.12 1002.21 1001.87 1001.96 1001.58 1000.39 999.92 999.39 999.15 999.12 999.34 999.41 999.65 1000.06 1000.56 1000.92 1000.94 1000.90 1002.03 1002.79 1003.83
1017.54 1017.16 1017.05 1016.98 1016.51 1016.01 1015.65 1015.31 1014.86 1014.10 1012.89 1011.88 1011.26 1011.39 1011.14 1011.07 1010.78 1010.56 1010.39 1010.15 1010.19 1009.73 1009.55 1007.98 1005.98 1004.81 1003.41 1002.08 1001.22 1001.19 1001.18 1001.46 1001.73 1001.08 1000.97 1001.35 1001.18 1000.12 999.60 999.01 998.81 999.01 998.91 999.07 999.89 1000.46 1000.85 1001.51 1001.85 1002.23 1002.10 1002.61 1003.09 1003.90
1016.99 1016.78 1016.54 1016.33 1016.28 1015.86 1015.25 1014.84 1014.61 1013.99 1012.67 1012.71 1012.77 1012.50 1011.75 1010.91 1010.46 1010.06 1009.65 1009.33 1008.90 1008.32 1007.43 1006.19 1005.31 1004.91 1003.77 1003.30 1002.22 1002.08 1002.08 1001.63 1001.22 1000.62 1000.60 1001.15 1001.08 1000.30 999.60 999.23 999.30 999.07 999.16 999.65 1000.08 1000.63 1001.00 1001.44 1002.18 1002.72 1003.29 1003.64 1003.92 1004.05
1016.15 1016.25 1016.02 1015.67 1015.50 1015.48 1014.95 1014.56 1014.44 1014.29 1013.88 1013.79 1013.88 1013.23 1012.40 1011.24 1010.07 1009.46 1008.45 1007.60 1007.25 1006.22 1005.18 1004.83 1003.98 1003.80 1003.20 1002.57 1002.61 1002.86 1002.80 1002.37 1001.54 1000.92 1000.78 1001.35 1001.26 1000.64 999.99 999.98 999.94 999.89 1000.14 1000.75 1001.09 1001.62 1002.10 1002.50 1002.88 1003.17 1003.59 1003.90 1004.19 1004.27
1015.84 1015.53 1015.61 1015.16 1014.96 1014.80 1014.52 1014.24 1014.18 1013.94 1013.46 1013.12 1013.06 1012.56 1011.76 1010.36 1009.54 1008.45 1007.43 1006.52 1005.99 1005.69 1005.05 1004.81 1004.02 1003.27 1003.07 1002.14 1002.56 1002.84 1003.08 1002.46 1001.35 1001.26 1001.37 1001.45 1001.52 1001.31 1000.72 1000.58 1000.82 1000.85 1001.13 1001.56 1002.09 1002.53 1002.93 1003.39 1003.65 1003.90 1004.30 1004.46 1004.60 1004.86
1015.28 1015.02 1014.76 1014.70 1014.55 1014.24 1014.03 1013.90 1013.84 1013.66 1013.53 1013.04 1012.23 1011.51 1010.68 1009.33 1008.52 1007.49 1007.28 1006.99 1006.36 1006.09 1005.61 1005.23 1004.21 1003.10 1002.43 1001.83 1002.00 1002.56 1002.18 1001.83 1002.04 1001.92 1001.82 1002.11 1001.99 1001.98 1001.71 1001.49 1001.39 1001.96 1002.13 1002.56 1003.03 1003.32 1003.66 1004.02 1004.44 1004.66 1004.81 1004.90 1004.95 1004.97
1014.65 1014.54 1014.24 1014.01 1013.68 1013.64 1013.59 1013.63 1013.65 1013.62 1013.41 1012.62 1011.81 1010.46 1009.14 1008.12 1007.57 1007.23 1006.72 1006.33 1006.05 1005.80 1005.52 1005.13 1004.39 1003.84 1003.17 1002.81 1002.24 1002.11 1002.24 1002.24 1002.17 1002.10 1001.95 1002.09 1002.27 1002.24 1002.47 1002.37 1002.54 1002.84 1003.11 1003.43 1003.67 1003.92 1004.28 1004.49 1004.76 1004.91 1004.91 1004.93 1004.94 1004.90
1014.46 1014.13 1013.66 1013.51 1013.50 1013.55 1013.43 1013.29 1013.06 1013.07 1012.65 1012.14 1011.22 1009.94 1008.44 1007.74 1007.45 1007.09 1006.49 1006.20 1005.90 1005.83 1005.44 1005.16 1004.65 1004.31 1004.09 1003.94 1003.03 1002.36 1002.34 1002.58 1002.63 1002.20 1002.14 1002.38 1002.50 1002.77 1002.78 1002.87 1003.07 1003.33 1003.61 1003.95 1004.03 1004.22 1004.51 1004.74 1004.98 1005.12 1005.13 1005.13 1005.07 1005.03
1014.30 1013.94 1013.46 1013.46 1013.39 1013.12 1012.75 1013.10 1012.56 1012.33 1011.80 1010.97 1009.95 1009.12 1008.75 1008.24 1007.52 1006.89 1006.34 1006.00 1005.70 1005.55 1005.40 1005.12 1004.99 1004.97 1004.48 1004.09 1003.31 1002.86 1002.97 1002.82 1002.70 1002.75 1002.30 1002.72 1002.74 1002.92 1002.85 1003.05 1003.45 1003.66 1003.98 1004.11 1004.26 1004.33 1004.44 1004.61 1004.82 1005.03 1005.26 1005.16 1005.16 1005.05
1013.88 1013.49 1013.39 1013.44 1013.26 1012.80 1012.19 1012.14 1011.91 1011.13 1010.48 1009.77 1009.55 1008.44 1007.91 1007.38 1007.02 1006.63 1006.14 1005.80 1005.76 1005.49 1005.33 1005.28 1005.07 1005.00 1004.95 1004.44 1004.10 1003.70 1003.28 1002.93 1002.94 1003.03 1003.07 1002.87 1002.89 1003.24 1003.27 1003.52 1003.71 1003.81 1004.02 1004.12 1004.27 1004.42 1004.58 1004.72 1004.99 1005.14 1005.03 1005.08 1005.09 1005.03
1013.36 1013.29 1013.19 1013.26 1013.33 1013.35 1012.55 1011.55 1011.33 1010.60 1009.29 1008.81 1008.35 1007.76 1007.36 1006.88 1006.36 1006.10 1005.91 1005.65 1005.51 1005.21 1005.38 1005.34 1005.27 1004.95 1004.92 1004.85 1004.40 1003.80 1003.34 1003.28 1003.39 1003.25 1003.14 1003.09 1003.13 1003.34 1003.33 1003.44 1003.66 1003.85 1004.06 1004.20 1004.35 1004.55 1004.62 1004.61 1004.70 1004.80 1004.93 1005.09 1005.17 1005.05
1013.02 1012.83 1012.67 1012.87 1013.13 1013.12 1012.38 1011.24 1010.32 1010.15 1009.29 1008.31 1007.72 1007.37 1006.99 1006.46 1005.89 1005.69 1005.57 1005.51 1005.57 1005.49 1005.39 1005.23 1004.84 1004.43 1004.34 1004.40 1004.05 1003.71 1003.53 1003.18 1003.25 1003.49 1003.56 1003.40 1003.33 1003.37 1003.50 1003.65 1003.86 1003.94 1004.11 1004.25 1004.39 1004.52 1004.55 1004.60 1004.61 1004.70 1004.84 1005.06 1005.14 1005.18
1012.64 1012.36 1012.23 1012.57 1012.97 1012.92 1012.34 1011.23 1010.45 1009.72 1008.99 1008.47 1007.59 1007.09 1006.63 1005.87 1005.62 1005.44 1005.31 1005.05 1005.54 1005.40 1005.08 1004.67 1004.52 1004.34 1003.87 1003.59 1003.43 1003.37 1003.10 1003.12 1003.30 1003.35 1003.47 1003.65 1003.46 1003.46 1003.56 1003.62 1003.77 1003.96 1004.20 1004.30 1004.37 1004.38 1004.31 1004.47 1004.55 1004.66 1004.68 1004.86 1004.88 1004.89
1012.46 1012.21 1012.32 1012.50 1012.51 1012.15 1011.91 1011.13 1010.56 1009.75 1009.27 1008.21 1007.47 1006.70 1006.34 1005.72 1005.11 1004.83 1004.54 1004.89 1004.88 1004.56 1004.30 1004.15 1004.03 1003.81 1003.86 1003.66 1003.49 1003.29 1003.21 1003.01 1003.07 1003.08 1003.11 1003.20 1003.46 1003.55 1003.68 1003.56 1003.83 1004.00 1003.97 1003.81 1003.75 1003.92 1003.78 1003.84 1004.00 1004.21 1004.53 1004.59 1004.57 1004.68
1012.41 1012.30 1012.24 1012.09 1012.11 1011.81 1011.29 1010.40 1010.19 1009.32 1008.70 1007.69 1006.75 1006.23 1005.60 1005.04 1004.41 1004.05 1004.27 1004.05 1003.80 1003.32 1003.27 1003.42 1003.48 1003.28 1003.40 1003.21 1003.13 1003.13 1003.05 1003.07 1003.27 1003.28 1003.27 1003.19 1003.09 1003.08 1003.21 1003.19 1003.36 1003.51 1003.51 1003.18 1002.99 1003.10 1003.29 1003.27 1003.57 1003.91 1004.11 1004.34 1004.50 1004.65
1012.41 1012.43 1011.97 1011.75 1011.73 1011.40 1010.53 1009.85 1009.27 1008.73 1007.76 1007.16 1006.54 1005.80 1005.03 1004.68 1004.15 1004.17 1004.08 1003.78 1003.79 1003.45 1003.46 1003.50 1003.41 1003.42 1003.36 1003.29 1003.32 1003.22 1003.11 1003.15 1003.27 1003.20 1003.11 1003.20 1003.14 1002.95 1002.80 1002.72 1002.80 1002.79 1002.82 1002.76 1002.77 1002.78 1002.69 1002.93 1003.14 1003.63 1003.93 1004.18 1004.31 1004.39
1012.84 1012.44 1012.20 1011.69 1011.11 1010.75 1009.82 1008.96 1008.34 1007.95 1007.26 1006.51 1005.94 1005.34 1004.91 1004.60 1004.40 1004.08 1004.07 1004.30 1003.89 1003.91 1003.78 1003.71 1003.63 1003.59 1003.74 1003.58 1003.46 1003.33 1003.01 1003.08 1003.31 1003.34 1002.93 1002.92 1002.81 1002.69 1002.66 1002.53 1002.45 1002.30 1002.28 1002.42 1002.55 1002.33 1002.38 1002.53 1002.95 1003.12 1003.22 1003.51 1003.80 1003.89
1012.25 1011.49 1011.31 1010.31 1009.85 1009.67 1009.11 1008.52 1007.89 1007.55 1006.96 1006.22 1005.62 1005.03 1004.68 1004.66 1004.30 1004.07 1004.22 1004.08 1003.88 1003.66 1003.27 1003.19 1003.25 1003.37 1003.33 1003.33 1003.23 1003.16 1002.96 1002.65 1002.79 1002.89 1002.46 1002.37 1002.29 1002.27 1002.31 1002.31 1002.28 1002.11 1001.87 1001.87 1002.43 1002.56 1002.25 1002.25 1002.51 1002.67 1002.78 1002.77 1002.93 1003.15
1011.41 1010.49 1009.97 1009.44 1009.22 1008.96 1008.74 1008.20 1007.72 1007.29 1006.71 1006.01 1005.44 1005.05 1004.71 1004.34 1004.05 1003.86 1003.53 1003.37 1003.18 1002.98 1002.90 1002.60 1002.51 1002.58 1002.56 1002.53 1002.46 1002.42 1002.29 1002.24 1002.27 1002.14 1001.78 1001.63 1001.53 1001.38 1001.33 1001.41 1001.42 1001.69 1001.29 1001.60 1002.01 1002.04 1001.57 1001.66 1001.82 1002.00 1002.24 1002.23 1002.24 1002.24
1010.54 1009.85 1009.49 1009.26 1009.08 1008.76 1008.58 1008.15 1007.63 1006.86 1006.17 1005.63 1005.44 1005.08 1004.68 1004.03 1003.97 1003.70 1003.23 1002.59 1002.24 1001.96 1002.00 1001.99 1001.97 1002.01 1002.03 1001.88 1001.67 1001.68 1001.69 1001.68 1001.53 1001.44 1001.33 1001.12 1000.86 1000.79 1000.77 1000.63 1000.44 1000.86 1001.06 1001.37 1001.40 1001.24 1001.14 1000.99 1001.01 1001.40 1001.59 1001.76 1001.84 1001.42
1009.83 1009.33 1009.15 1008.88 1008.64 1008.30 1007.91 1007.58 1007.11 1006.51 1006.04 1005.92 1005.75 1005.30 1004.66 1003.91 1003.47 1003.02 1002.53 1002.41 1002.21 1002.21 1002.03 1001.86 1001.59 1001.43 1001.28 1001.10 1001.07 1001.13 1001.25 1001.41 1001.63 1001.55 1001.48 1001.30 1001.03 1000.78 1000.72 1000.46 1000.51 1000.67 1000.57 1000.81 1000.69 1000.78 1001.07 1000.96 1000.81 1000.63 1000.80 1000.89 1000.95 1001.16
1009.16 1008.78 1008.83 1008.55 1008.30 1007.72 1007.10 1006.68 1006.53 1006.25 1006.11 1006.00 1005.62 1004.92 1004.12 1003.57 1003.36 1002.68 1002.23 1002.27 1002.15 1001.89 1001.67 1001.28 1001.12 1001.05 1000.92 1000.62 1000.50 1000.35 1000.38 1000.48 1000.80 1001.17 1001.20 1001.14 1001.04 1000.79 1000.46 1000.38 1000.22 1000.29 1000.39 1000.31 1000.29 1000.63 1000.96 1000.65 1000.80 1000.69 1000.52 1000.58 1001.10 1001.47
1008.68 1008.59 1008.58 1008.32 1007.80 1007.05 1006.63 1006.29 1005.97 1005.83 1005.53 1005.05 1004.67 1004.50 1003.76 1003.81 1003.51 1001.89 1002.12 1002.05 1001.58 1001.40 1001.27 1001.09 1000.95 1000.89 1000.77 1000.62 1000.40 1000.57 1000.83 1000.71 1000.71 1000.66 1000.65 1000.72 1000.57 1000.35 1000.23 1000.19 1000.08 1000.06 999.95 1000.02 1000.26 1000.31 1000.32 1000.31 1000.31 1000.24 1000.11 1000.32 1000.82 1001.16
1008.27 1008.37 1008.41 1008.18 1007.51 1006.67 1006.41 1006.00 1005.59 1005.21 1004.49 1003.95 1003.59 1003.19 1002.83 1003.28 1003.64 1002.59 1001.88 1001.78 1001.92 1001.80 1001.61 1001.57 1001.52 1001.36 1001.26 1000.95 1000.56 1000.53 1000.56 1000.45 1000.30 1000.30 1000.52 1000.73 1000.72 1000.53 1000.32 1000.35 1000.38 1000.08 999.84 999.81 999.64 999.71 999.87 999.98 1000.27 1000.22 1000.50 1001.07 1000.89 1000.76
1007.78 1007.92 1008.05 1008.01 1007.45 1006.53 1005.82 1005.62 1005.07 1004.56 1003.96 1003.63 1003.06 1002.72 1002.32 1002.38 1002.47 1001.91 1001.14 1001.55 1001.97 1001.77 1001.24 1001.59 1001.40 1000.68 1000.27 1000.06 1000.19 1000.03 999.92 1000.35 1000.17 1000.24 1000.16 1000.04 1000.08 1000.11 1000.42 1000.45 1000.10 999.79 999.27 999.15 999.31 999.39 999.75 999.82 999.63 999.51 999.52 1000.38 1001.00 1001.75
Wind_Speed
13 13 13 14 16 15 15 15 16 17 18 18 18 18 16 15 13 5 6 4 1 4 12 14 8 6 4 3 3 6 7 7 6 6 3 3 2 4 1 5 5 7 6 5 3 4 4 4 5 9 8 4 8 5
14 13 13 14 15 15 16 16 16 16 18 18 18 18 17 15 12 8 3 4 4 5 10 13 21 22 21 17 2 5 3 3 3 3 3 1 2 2 1 5 2 2 7 6 8 7 5 2 9 7 13 15 7 12
14 13 14 15 15 16 17 16 17 17 18 18 20 18 16 14 12 7 4 3 3 4 9 6 11 12 14 22 20 6 4 4 3 4 2 3 1 3 1 4 4 6 3 5 7 6 5 6 3 7 11 8 11 14
14 14 14 14 15 16 17 17 17 18 18 19 20 20 17 14 11 9 4 2 1 4 6 10 6 12 4 9 20 22 8 4 2 2 2 1 1 2 3 3 1 3 5 5 5 5 5 4 6 6 5 13 13 13
13 13 14 14 14 16 16 16 16 19 20 20 20 21 18 17 14 8 8 6 8 3 4 9 17 9 8 8 18 19 14 7 2 2 2 3 2 3 2 1 5 4 1 4 4 7 6 4 6 12 16 13 15 14
14 14 14 14 15 16 17 17 18 19 21 21 21 22 19 16 10 4 4 2 6 5 4 6 6 8 7 6 13 13 10 5 4 5 4 4 4 4 2 1 5 1 3 4 2 2 4 6 5 4 10 12 12 16
13 14 14 14 14 16 19 17 18 21 21 21 23 22 19 13 3 4 3 0 2 3 3 6 6 7 5 3 3 3 4 3 4 3 2 2 3 4 2 4 6 4 5 5 5 5 7 6 4 4 6 8 10 9
12 13 13 14 14 16 16 17 19 21 24 24 25 24 19 8 5 5 5 13 5 3 3 4 6 5 1 2 1 3 3 2 1 4 1 3 3 3 2 6 6 4 6 7 6 6 4 3 4 6 5 7 9 9
13 13 13 13 13 14 17 16 18 21 25 26 27 15 3 1 2 2 12 3 2 2 3 3 3 5 7 3 2 0 4 2 2 4 4 5 1 4 8 8 5 6 6 8 6 8 9 9 8 7 4 11 16 13
13 12 13 13 13 14 14 16 17 20 25 25 5 2 1 2 10 8 1 2 2 3 3 4 4 4 3 3 2 1 1 4 3 7 4 4 4 5 6 10 6 7 8 9 7 6 6 6 6 5 7 11 15 13
13 12 12 12 15 15 12 13 15 18 9 5 5 3 4 11 2 3 3 4 3 4 5 5 7 4 3 4 2 3 3 2 2 3 5 2 2 3 2 9 7 9 12 11 10 7 7 9 10 12 12 11 12 13
12 12 12 12 14 14 13 11 12 5 1 3 7 5 3 3 3 3 4 3 5 5 4 4 5 6 3 3 3 4 4 4 3 4 2 2 4 2 7 12 11 15 17 14 13 12 8 8 6 7 6 7 7 6
13 11 12 12 13 13 12 10 11 10 9 1 2 3 2 2 1 4 4 2 4 6 6 5 6 5 5 6 3 4 3 5 3 3 3 4 1 3 5 10 11 13 15 14 13 11 10 8 7 6 3 2 3 3
12 12 12 12 14 13 11 10 8 5 2 3 3 4 4 4 4 2 2 3 3 4 5 7 5 3 2 2 3 4 5 2 2 2 3 3 5 5 5 5 13 9 11 13 11 10 9 9 7 7 6 5 5 3
11 11 12 12 11 4 6 8 7 1 2 3 3 5 5 4 1 4 5 3 2 1 4 6 3 2 4 3 1 2 3 5 4 4 3 3 5 6 6 6 9 9 8 7 6 8 7 7 6 6 6 5 6 5
9 11 4 6 1 6 10 8 3 3 3 3 5 4 4 2 3 4 2 3 2 2 3 2 2 2 3 2 3 4 3 2 3 3 1 3 6 6 6 7 7 7 7 7 6 7 5 5 4 4 2 2 2 2
5 3 5 3 8 13 13 3 3 4 4 4 4 4 6 6 6 3 1 3 3 2 2 1 3 3 2 3 2 4 1 2 1 2 2 6 3 5 6 7 7 7 7 6 4 3 2 1 3 3 3 2 2 2
4 2 4 5 6 5 2 4 3 4 7 5 3 4 3 3 2 4 3 3 3 3 4 1 1 2 2 3 1 3 2 3 1 1 2 1 4 5 5 7 6 6 5 4 3 2 1 1 2 2 2 2 3 3
3 5 8 7 3 2 3 3 3 4 5 3 4 4 3 4 4 4 3 4 3 2 0 1 2 3 3 2 3 2 1 1 3 3 1 2 4 4 4 4 4 4 4 2 1 2 3 4 3 3 1 1 1 2
10 13 14 8 4 2 3 4 2 3 4 4 3 4 3 4 4 3 3 2 1 1 1 2 3 2 4 4 4 4 3 1 2 2 2 2 0 3 3 3 2 3 2 2 1 1 1 1 2 2 3 3 2 1
5 1 3 5 2 3 3 3 4 4 4 3 4 2 4 2 2 3 4 2 3 3 2 3 2 2 2 2 2 2 2 1 2 3 4 3 3 3 2 3 3 1 2 3 3 4 5 4 3 3 3 2 3 3
2 0 0 3 2 4 3 4 4 4 2 4 4 3 3 3 3 3 3 2 3 5 5 4 4 3 2 3 2 2 3 4 2 2 2 2 0 1 2 4 3 2 4 5 5 5 5 4 4 4 4 3 2 3
6 2 2 3 3 1 6 1 2 3 3 4 3 3 3 2 3 1 1 3 4 4 4 4 4 4 5 4 3 4 4 3 3 2 3 3 4 4 4 4 4 3 4 4 2 4 5 6 6 5 4 3 3 2
2 2 2 3 4 4 3 3 3 3 3 3 2 4 3 1 2 1 3 1 2 2 2 2 2 2 3 3 1 2 2 2 0 3 3 3 2 4 4 4 3 3 3 3 3 4 5 5 6 5 5 4 4 3
1 4 3 4 4 2 4 3 3 2 4 3 2 3 2 2 1 2 2 4 3 2 1 2 3 2 1 2 3 2 2 2 2 4 5 4 4 1 2 2 2 3 1 2 4 2 5 3 5 7 7 6 7 7
2 4 6 3 2 3 3 3 2 3 4 3 2 3 1 1 2 2 3 2 3 3 4 3 3 3 4 4 4 3 3 2 1 3 4 4 4 5 5 4 3 3 3 4 3 4 5 5 6 7 7 9 10 8
3 4 4 3 2 3 3 3 4 2 3 3 2 2 2 2 2 2 2 2 3 2 3 4 4 4 5 4 4 3 3 3 4 5 5 4 4 5 5 5 5 4 3 1 6 7 3 6 7 8 6 4 7 9
4 3 2 2 1 2 2 3 3 3 2 3 4 3 4 3 1 2 4 4 4 5 3 3 4 4 4 5 4 4 3 4 7 3 4 4 4 4 5 5 4 10 6 7 5 3 5 4 5 6 5 5 6 5
3 3 2 7 4 3 4 4 3 3 2 3 2 3 4 3 4 7 6 2 3 2 4 4 4 4 5 5 4 4 4 3 2 5 6 4 4 3 3 1 3 4 5 5 6 4 3 4 5 5 4 6 6 2
3 2 2 3 3 3 4 5 3 3 2 3 3 4 4 4 4 4 4 3 4 5 4 4 4 3 3 3 3 4 5 5 5 5 4 3 4 3 2 3 4 4 5 5 3 2 3 2 5 4 3 3 4 4
2 1 2 3 3 4 5 4 4 4 4 5 5 6 8 3 4 7 3 3 5 1 1 4 3 3 3 4 2 2 4 3 4 5 5 3 3 3 2 3 4 5 3 4 3 2 3 6 6 8 8 7 9 6
3 4 2 2 4 3 3 3 3 3 3 3 4 4 2 4 2 4 3 1 3 3 4 4 5 5 4 4 5 3 4 3 3 3 3 3 4 4 4 3 5 5 5 5 4 3 4 8 3 4 6 4 7 9
1 1 3 2 3 4 3 2 3 3 2 2 2 3 2 3 1 3 2 3 1 4 4 4 4 4 8 7 3 5 6 1 6 4 5 5 5 5 3 4 5 5 7 5 5 5 5 7 5 8 10 11 7 5
Wind_Direction
306 309 311 313 314 316 316 319 321 322 326 326 327 329 329 333 338 354 281 279 353 281 283 258 255 240 316 236 259 308 351 348 356 41 110 207 135 262 296 236 224 183 161 198 102 136 239 211 17 120 186 106 125 90
300 302 303 308 310 312 313 315 318 319 323 322 323 321 322 325 327 336 267 322 327 228 256 292 270 255 236 227 23 302 221 254 252 35 4 101 6 358 223 274 343 339 184 186 164 205 258 347 123 128 143 141 147 128
295 298 303 308 309 308 310 317 318 318 321 319 319 319 319 315 310 297 273 290 284 264 281 262 249 253 226 224 213 198 271 222 5 191 227 248 127 132 352 280 315 306 65 112 89 300 125 116 78 124 138 145 149 145
296 300 301 302 305 307 308 313 314 318 314 310 312 312 310 306 296 279 253 222 290 272 277 280 302 274 241 183 193 206 232 294 39 31 278 66 161 152 230 230 11 252 27 359 52 22 43 16 132 137 103 134 128 136
292 293 296 299 299 301 304 308 312 314 313 308 306 307 306 303 303 282 257 232 213 224 292 290 303 267 273 185 184 198 212 232 124 341 6 256 257 45 320 54 352 348 229 102 223 251 154 195 194 137 128 137 141 133
291 293 296 297 303 303 306 308 310 308 307 308 308 304 299 303 304 295 308 181 199 190 285 292 295 284 297 192 175 183 201 193 156 153 222 271 267 106 97 190 252 248 87 144 177 278 76 102 126 121 135 140 138 137
287 291 295 299 301 304 313 309 311 312 307 305 304 298 300 292 219 218 223 136 28 229 257 287 290 269 249 114 113 146 156 164 134 174 234 227 292 81 132 171 259 95 134 87 68 75 33 41 105 99 120 142 139 138
284 289 293 295 298 304 306 307 315 311 309 308 306 305 291 259 229 268 253 234 187 237 257 276 273 297 94 146 165 156 139 92 232 193 335 183 334 105 257 234 197 137 121 96 82 73 136 63 80 94 123 122 121 98
284 289 291 293 299 304 305 307 313 313 311 312 311 316 92 116 218 326 330 85 129 165 284 270 287 285 335 305 169 106 126 133 225 174 223 110 222 204 211 206 192 171 156 168 116 97 66 60 56 17 108 93 105 105
281 285 290 294 298 300 304 310 315 316 313 313 348 332 244 355 311 304 204 159 202 212 223 249 272 281 11 315 281 19 153 200 167 230 120 144 239 253 229 223 169 151 128 123 100 92 85 63 72 55 106 125 127 128
281 285 288 295 298 297 305 312 315 324 328 7 357 318 313 305 279 213 229 209 170 230 210 225 203 212 284 221 292 36 286 323 174 284 135 182 283 286 347 81 94 84 84 81 94 72 94 135 135 119 112 117 126 129
276 283 287 291 296 295 301 310 314 329 309 258 285 287 278 274 243 255 226 218 196 235 195 204 208 193 261 191 116 349 20 345 255 307 113 80 269 301 82 93 90 94 97 93 89 92 87 84 81 91 120 147 159 165
275 280 283 285 288 289 298 303 301 285 295 251 217 247 248 256 311 243 232 261 330 352 8 339 317 172 211 202 111 111 115 256 314 27 156 178 267 350 85 102 92 100 99 94 85 86 89 83 77 78 91 179 142 154
274 279 281 288 285 281 287 289 299 328 313 261 261 273 223 203 242 273 2 292 309 324 327 322 270 274 269 15 127 125 223 71 15 284 219 159 189 130 89 74 96 88 89 95 98 92 85 86 88 86 78 72 84 84
278 282 287 290 281 271 261 281 293 276 268 265 259 247 226 254 118 288 272 263 280 246 346 323 293 23 341 351 285 99 152 207 202 213 218 175 145 112 102 94 92 90 94 93 98 95 90 84 81 63 43 50 45 32
292 295 228 205 3 312 296 304 252 189 243 242 237 271 280 197 11 297 285 306 356 313 296 253 293 64 8 334 291 213 197 159 234 261 332 121 118 118 99 91 98 103 102 104 100 106 108 103 110 132 99 58 14 27
277 246 147 50 330 304 282 210 221 209 243 228 242 224 248 263 251 253 261 265 214 298 319 303 36 31 343 312 284 20 56 259 278 288 65 28 84 124 119 105 100 98 95 99 103 106 107 64 107 77 40 300 296 269
239 230 153 26 337 291 246 199 250 233 234 229 239 257 244 246 253 284 293 317 6 349 354 3 192 69 337 323 16 305 283 307 43 32 2 73 100 123 129 121 122 124 125 128 138 154 129 80 99 160 252 311 340 319
268 298 301 324 336 302 280 220 210 262 257 237 241 257 241 244 241 233 236 274 256 263 270 328 199 184 155 293 278 296 285 182 194 219 182 137 148 142 140 127 136 147 146 162 113 164 183 176 172 192 242 36 6 311
274 273 269 264 194 251 262 263 208 241 273 259 296 278 243 233 231 231 243 256 209 301 257 219 242 87 156 207 226 234 263 298 97 48 354 328 287 147 173 176 192 190 179 241 192 182 224 358 351 205 169 167 121 297
262 237 96 132 191 221 269 286 280 235 282 281 286 293 265 282 256 234 236 202 143 207 245 225 203 220 263 297 304 326 311 98 140 163 200 228 250 184 229 245 218 211 195 228 220 247 224 202 197 188 174 165 198 198
257 239 165 187 254 203 249 249 229 284 289 260 302 213 263 269 250 234 183 141 215 217 199 203 235 236 218 207 236 276 273 303 184 141 82 121 171 208 240 231 139 236 240 230 214 209 223 212 179 172 192 217 201 166
298 179 239 224 246 358 260 265 245 258 257 264 287 262 240 250 248 87 231 214 229 217 195 188 215 218 205 226 227 267 274 259 269 250 261 240 236 228 227 237 190 222 267 284 207 191 196 183 176 174 194 191 200 169
127 263 237 231 182 265 266 243 217 254 263 254 256 272 292 282 293 162 242 282 307 7 56 59 51 19 358 2 295 245 220 128 62 316 292 266 264 241 223 228 209 185 186 269 284 220 183 186 162 182 195 197 206 222
260 276 142 265 276 249 253 247 227 246 252 247 263 281 292 1 325 273 26 344 345 14 59 35 31 20 225 260 285 284 206 156 225 255 271 231 236 271 264 303 249 229 184 31 359 185 174 166 173 194 200 200 205 221
192 241 175 254 230 218 278 271 313 309 285 281 294 294 346 284 255 126 216 222 227 220 221 212 226 255 273 234 242 274 264 204 187 245 265 243 222 187 202 199 209 281 223 149 136 284 248 215 203 200 219 221 213 206
251 260 218 240 248 234 280 275 274 257 240 265 291 303 288 276 270 247 290 247 235 283 267 239 217 213 241 256 255 237 250 258 237 229 241 260 265 215 177 192 205 182 168 322 267 232 254 199 207 208 223 217 218 211
249 274 235 244 272 291 291 268 270 273 289 327 353 321 312 316 326 274 240 259 228 228 239 240 226 227 234 249 232 229 255 255 269 263 294 286 257 236 227 218 195 179 182 217 225 326 330 258 178 188 202 184 185 157
242 259 286 276 262 238 227 223 247 253 341 4 331 292 270 287 305 306 313 281 290 298 275 277 273 235 240 243 228 213 220 230 235 270 275 259 298 320 347 285 248 196 206 226 235 239 321 320 276 274 223 190 198 262
258 235 270 278 281 250 238 191 259 304 289 216 250 291 282 305 327 295 264 306 289 275 268 254 237 257 271 258 268 227 208 194 184 180 211 234 212 245 316 319 342 233 199 211 226 145 136 62 329 296 257 174 107 119
262 253 258 244 252 253 251 288 293 278 257 250 244 246 266 359 303 284 352 288 301 292 28 44 21 17 19 344 309 354 1 350 254 227 211 269 276 279 302 337 339 307 245 224 218 235 291 300 290 241 225 160 152 143
190 204 203 280 279 281 307 225 243 227 270 242 234 222 244 122 229 282 270 303 352 24 47 34 6 347 345 318 334 8 177 289 333 263 217 230 267 280 309 314 284 290 295 249 218 214 262 264 276 87 81 124 152 158
125 151 194 261 264 258 219 244 247 275 273 260 302 328 311 152 130 256 255 172 129 318 335 87 57 15 339 328 300 281 295 332 306 307 178 195 232 249 276 271 271 294 271 232 229 235 191 225 197 174 158 141 189 209